When you browse on this site, cookies collect data to enhance your experience and personalize the content and advertising you see.
Visit our Privacy Policy to learn more. By continuing to use the site, you agree to this use of cookies and data.
  • In Portugal
  • List of Countries
  • For 7 days
  • Water Temperature
  • Satellite Maps
  • Weather Map
  • Weather Widgets
  • user-avatar
    Login

    Hourly Weather Waplewko

    Today, 10 December, Monday

    Time Temperature Precipitation Wind Pressure Humidity
    00:00 +3°C° 0 mm 4 mps 739 mmHg 93%
    01:00 +3°C° 0 mm 3 mps 740 mmHg 95%
    02:00 +3°C° 0.1 mm 3 mps 740 mmHg 94%
    03:00 +3°C° 0.1 mm 4 mps 740 mmHg 94%
    04:00 +3°C° 0.1 mm 4 mps 741 mmHg 93%
    05:00 +2°C° 0.3 mm 5 mps 741 mmHg 88%
    06:00 +2°C° 0.3 mm 5 mps 742 mmHg 83%
    07:00 +2°C° 0.3 mm 6 mps 743 mmHg 79%
    08:00 +2°C° 0 mm 6 mps 743 mmHg 77%
    09:00 +2°C° 0 mm 6 mps 744 mmHg 76%
    10:00 +2°C° 0 mm 6 mps 744 mmHg 75%
    11:00 +3°C° 0 mm 6 mps 744 mmHg 72%
    12:00 +3°C° 0 mm 6 mps 745 mmHg 69%
    13:00 +3°C° 0 mm 6 mps 745 mmHg 65%
    14:00 +3°C° 0 mm 5 mps 745 mmHg 68%
    15:00 +2°C° 0 mm 5 mps 746 mmHg 71%
    16:00 +1°C° 0 mm 4 mps 746 mmHg 73%
    17:00 +1°C° 0 mm 4 mps 746 mmHg 76%
    18:00 0°C° 0 mm 4 mps 746 mmHg 78%
    19:00 0°C° 0 mm 4 mps 746 mmHg 80%
    20:00 0°C° 0 mm 4 mps 747 mmHg 82%
    21:00 -1°C° 0 mm 4 mps 747 mmHg 84%
    22:00 -1°C° 0 mm 4 mps 747 mmHg 87%
    23:00 -1°C° 0 mm 4 mps 747 mmHg 87%

    Tomorrow, 11 December, Tuesday

    Time Temperature Precipitation Wind Pressure Humidity
    00:00 -1°C° 0 mm 4 mps 747 mmHg 88%
    01:00 -1°C° 0 mm 4 mps 747 mmHg 89%
    02:00 0°C° 0.2 mm 3 mps 747 mmHg 89%
    03:00 0°C° 0.2 mm 3 mps 747 mmHg 89%
    04:00 0°C° 0.2 mm 3 mps 747 mmHg 89%
    05:00 0°C° 0.2 mm 3 mps 748 mmHg 90%
    06:00 0°C° 0.2 mm 3 mps 748 mmHg 91%
    07:00 +1°C° 0.2 mm 2 mps 748 mmHg 92%
    08:00 +2°C° 0 mm 2 mps 749 mmHg 92%
    09:00 +2°C° 0 mm 2 mps 749 mmHg 91%
    10:00 +2°C° 0 mm 2 mps 750 mmHg 91%
    11:00 +2°C° 0 mm 2 mps 750 mmHg 89%
    12:00 +2°C° 0 mm 2 mps 751 mmHg 88%
    13:00 +2°C° 0 mm 3 mps 751 mmHg 87%
    14:00 +1°C° 0 mm 3 mps 752 mmHg 89%
    15:00 +1°C° 0 mm 3 mps 752 mmHg 90%
    16:00 0°C° 0 mm 3 mps 753 mmHg 92%
    17:00 0°C° 0 mm 3 mps 753 mmHg 92%
    18:00 0°C° 0 mm 3 mps 754 mmHg 92%
    19:00 -1°C° 0 mm 3 mps 754 mmHg 92%
    20:00 -1°C° 0 mm 2 mps 755 mmHg 93%
    21:00 -1°C° 0 mm 2 mps 755 mmHg 93%
    22:00 -1°C° 0 mm 2 mps 756 mmHg 93%
    23:00 -1°C° 0 mm 2 mps 756 mmHg 93%

    Day after tomorrow, 12 December, Wednesday

    Time Temperature Precipitation Wind Pressure Humidity
    00:00 -2°C° 0 mm 2 mps 756 mmHg 93%
    01:00 -2°C° 0 mm 2 mps 757 mmHg 93%
    02:00 -2°C° 0 mm 2 mps 757 mmHg 93%
    03:00 -2°C° 0 mm 2 mps 757 mmHg 93%
    04:00 0°C° 0 mm 1 mps 757 mmHg 93%
    05:00 0°C° 0 mm 1 mps 758 mmHg 93%
    06:00 0°C° 0 mm 1 mps 758 mmHg 93%
    07:00 0°C° 0 mm 1 mps 759 mmHg 93%
    08:00 +1°C° 0 mm 1 mps 759 mmHg 91%
    09:00 +1°C° 0 mm 1 mps 759 mmHg 90%
    10:00 +2°C° 0 mm 1 mps 760 mmHg 88%
    11:00 +2°C° 0 mm 1 mps 760 mmHg 87%
    12:00 +2°C° 0 mm 1 mps 760 mmHg 85%
    13:00 +3°C° 0 mm 1 mps 760 mmHg 84%
    14:00 +1°C° 0 mm 2 mps 760 mmHg 87%
    15:00 +1°C° 0 mm 2 mps 760 mmHg 89%
    16:00 -1°C° 0 mm 2 mps 760 mmHg 92%
    17:00 -1°C° 0 mm 2 mps 760 mmHg 92%
    18:00 -1°C° 0 mm 2 mps 761 mmHg 93%
    19:00 -1°C° 0 mm 2 mps 761 mmHg 93%
    20:00 -1°C° 0 mm 2 mps 761 mmHg 94%
    21:00 -1°C° 0 mm 2 mps 761 mmHg 94%
    22:00 -1°C° 0 mm 2 mps 762 mmHg 94%
    23:00 -1°C° 0 mm 3 mps 762 mmHg 94%

    13 December, Thursday

    Time Temperature Precipitation Wind Pressure Humidity
    00:00 -1°C° 0 mm 3 mps 762 mmHg 93%
    01:00 -1°C° 0 mm 3 mps 762 mmHg 93%
    02:00 -1°C° 0 mm 3 mps 762 mmHg 92%
    03:00 -1°C° 0 mm 3 mps 762 mmHg 91%
    04:00 -1°C° 0 mm 3 mps 761 mmHg 91%
    05:00 -1°C° 0 mm 3 mps 761 mmHg 90%
    06:00 -1°C° 0 mm 3 mps 761 mmHg 90%
    07:00 -1°C° 0 mm 3 mps 761 mmHg 90%
    08:00 -1°C° 0 mm 3 mps 761 mmHg 88%
    09:00 -1°C° 0 mm 3 mps 761 mmHg 87%
    10:00 -1°C° 0 mm 3 mps 761 mmHg 85%
    11:00 0°C° 0 mm 3 mps 761 mmHg 83%
    12:00 0°C° 0 mm 3 mps 761 mmHg 81%
    13:00 0°C° 0 mm 3 mps 761 mmHg 79%
    14:00 0°C° 0 mm 3 mps 761 mmHg 82%
    15:00 -1°C° 0 mm 3 mps 761 mmHg 84%
    16:00 -1°C° 0 mm 3 mps 760 mmHg 86%
    17:00 -2°C° 0 mm 3 mps 761 mmHg 87%
    18:00 -2°C° 0 mm 3 mps 761 mmHg 87%
    19:00 -2°C° 0 mm 3 mps 761 mmHg 88%
    20:00 -2°C° 0 mm 3 mps 761 mmHg 88%
    21:00 -2°C° 0 mm 3 mps 761 mmHg 88%
    22:00 -2°C° 0 mm 2 mps 762 mmHg 88%
    23:00 -2°C° 0 mm 2 mps 762 mmHg 87%

    14 December, Friday

    Time Temperature Precipitation Wind Pressure Humidity
    00:00 -2°C° 0 mm 2 mps 762 mmHg 87%
    01:00 -2°C° 0 mm 2 mps 762 mmHg 87%
    02:00 -2°C° 0 mm 2 mps 762 mmHg 88%
    03:00 -2°C° 0 mm 2 mps 763 mmHg 89%
    04:00 -3°C° 0 mm 2 mps 763 mmHg 90%
    05:00 -3°C° 0 mm 2 mps 763 mmHg 91%
    06:00 -2°C° 0 mm 2 mps 763 mmHg 91%
    07:00 -2°C° 0 mm 2 mps 763 mmHg 91%
    08:00 -2°C° 0 mm 2 mps 764 mmHg 90%
    09:00 -2°C° 0 mm 2 mps 764 mmHg 88%
    10:00 -1°C° 0 mm 2 mps 765 mmHg 86%
    11:00 -1°C° 0 mm 2 mps 765 mmHg 85%
    12:00 -1°C° 0 mm 2 mps 765 mmHg 84%
    13:00 +1°C° 0 mm 2 mps 766 mmHg 83%
    14:00 -1°C° 0 mm 2 mps 766 mmHg 85%
    15:00 -1°C° 0 mm 2 mps 766 mmHg 88%
    16:00 -2°C° 0 mm 2 mps 767 mmHg 91%
    17:00 -2°C° 0 mm 2 mps 767 mmHg 91%
    18:00 -2°C° 0 mm 2 mps 767 mmHg 91%
    19:00 -2°C° 0 mm 2 mps 767 mmHg 92%
    20:00 -3°C° 0 mm 2 mps 768 mmHg 92%
    21:00 -3°C° 0 mm 2 mps 768 mmHg 92%
    22:00 -3°C° 0 mm 2 mps 768 mmHg 92%
    23:00 -3°C° 0 mm 2 mps 768 mmHg 92%

    15 December, Saturday

    Time Temperature Precipitation Wind Pressure Humidity
    00:00 -3°C° 0 mm 2 mps 769 mmHg 92%
    01:00 -3°C° 0 mm 2 mps 769 mmHg 92%
    02:00 -3°C° 0 mm 2 mps 769 mmHg 91%
    03:00 -3°C° 0 mm 2 mps 769 mmHg 91%
    04:00 -3°C° 0 mm 2 mps 769 mmHg 90%
    05:00 -2°C° 0 mm 2 mps 770 mmHg 90%
    06:00 -2°C° 0 mm 2 mps 770 mmHg 89%
    07:00 -2°C° 0 mm 2 mps 770 mmHg 89%
    08:00 -2°C° 0 mm 2 mps 770 mmHg 88%
    09:00 -2°C° 0 mm 2 mps 771 mmHg 86%
    10:00 -2°C° 0 mm 3 mps 771 mmHg 85%
    11:00 -1°C° 0 mm 3 mps 771 mmHg 83%
    12:00 -1°C° 0 mm 3 mps 771 mmHg 80%
    13:00 -1°C° 0 mm 3 mps 771 mmHg 78%
    14:00 -1°C° 0 mm 3 mps 771 mmHg 80%
    15:00 -2°C° 0 mm 2 mps 771 mmHg 82%
    16:00 -2°C° 0 mm 2 mps 771 mmHg 83%
    17:00 -3°C° 0 mm 2 mps 772 mmHg 84%
    18:00 -4°C° 0 mm 3 mps 772 mmHg 84%
    19:00 -4°C° 0 mm 3 mps 772 mmHg 84%
    20:00 -4°C° 0 mm 3 mps 772 mmHg 84%
    21:00 -4°C° 0 mm 3 mps 772 mmHg 84%
    22:00 -4°C° 0 mm 3 mps 772 mmHg 84%
    23:00 -4°C° 0 mm 3 mps 772 mmHg 85%
    Show more